�N����,����,�g�[���i���ԁj���x,�g�[�����x,��g�[���i���ցj���x,����
 2004/06/01, 0:00,26.2,58,23.7,22.8
 2004/06/01, 0:15,26.2,58.5,23.6,22.8
 2004/06/01, 0:30,26.2,59,23.6,22.8
 2004/06/01, 0:45,26.1,59,23.5,22.8
 2004/06/01, 1:00,26,59,23.4,22.8
 2004/06/01, 1:15,25.9,60,23.4,22.8
 2004/06/01, 1:30,25.9,60,23.3,22.8
 2004/06/01, 1:45,25.9,60,23.2,22.8
 2004/06/01, 2:00,25.8,60,23.2,22.7
 2004/06/01, 2:15,25.6,60,23.1,22.8
 2004/06/01, 2:30,25.6,60,23,22.8
 2004/06/01, 2:45,25.6,60,23,22.7
 2004/06/01, 3:00,25.5,60,23,22.7
 2004/06/01, 3:15,25.4,60,22.9,22.7
 2004/06/01, 3:30,25.4,60,22.9,22.7
 2004/06/01, 3:45,25.4,61,22.8,22.6
 2004/06/01, 4:00,25.3,61,22.8,22.6
 2004/06/01, 4:15,25.2,61,22.7,22.6
 2004/06/01, 4:30,25.2,61,22.7,22.6
 2004/06/01, 4:45,25.1,61,22.6,22.6
 2004/06/01, 5:00,25,61,22.5,22.6
 2004/06/01, 5:15,25,61,22.5,22.6
 2004/06/01, 5:30,25,61,22.5,22.6
 2004/06/01, 5:45,25,61,22.5,22.5
 2004/06/01, 6:00,24.9,61,22.4,22.5
 2004/06/01, 6:15,24.9,61,22.4,22.5
 2004/06/01, 6:30,24.9,62,22.4,22.5
 2004/06/01, 6:45,25,63,22.4,22.3
 2004/06/01, 7:00,25,63,22.4,22.3
 2004/06/01, 7:15,25,63,22.4,22.2
 2004/06/01, 7:30,25,66,22.4,22.1
 2004/06/01, 7:45,24.7,71,22.4,22.1
 2004/06/01, 8:00,24.8,72,22.4,22
 2004/06/01, 8:15,24.9,72.5,22.4,22
 2004/06/01, 8:30,25,73,22.5,22.1
 2004/06/01, 8:45,25,73.5,22.5,22.1
 2004/06/01, 9:00,25,73,22.5,22.1
 2004/06/01, 9:15,25.1,73,22.5,22.1
 2004/06/01, 9:30,25.1,74,22.6,22.1
 2004/06/01, 9:45,25.1,74,22.6,22.1
 2004/06/01,10:00,25.2,73,22.6,22.1
 2004/06/01,10:15,25.2,71.5,22.7,22.1
 2004/06/01,10:30,25.4,69,22.7,22.2
 2004/06/01,10:45,25.6,68.5,22.9,22.2
 2004/06/01,11:00,25.7,68,22.9,22.2
 2004/06/01,11:15,25.8,67.5,23,22.2
 2004/06/01,11:30,25.9,66,23.1,22.3
 2004/06/01,11:45,26.1,63.5,23.2,22.2
 2004/06/01,12:00,26.2,63,23.3,22.3
 2004/06/01,12:15,26.3,62,23.3,22.3
 2004/06/01,12:30,26.4,62,23.3,22.3
 2004/06/01,12:45,26.5,62,23.4,22.4
 2004/06/01,13:00,26.5,62,23.5,22.4
 2004/06/01,13:15,26.8,62,23.5,22.5
 2004/06/01,13:30,26.9,61,23.6,22.5
 2004/06/01,13:45,26.9,61.5,23.7,22.5
 2004/06/01,14:00,26.9,61,23.7,22.5
 2004/06/01,14:15,27,61,23.8,22.6
 2004/06/01,14:30,27.1,61,23.8,22.6
 2004/06/01,14:45,27.1,60,23.9,22.7
 2004/06/01,15:00,27.2,61,24,22.7
 2004/06/01,15:15,27.2,60,24,22.8
 2004/06/01,15:30,27.3,60,24,22.7
 2004/06/01,15:45,27.3,60,24.1,22.8
 2004/06/01,16:00,27.3,60,24.1,22.9
 2004/06/01,16:15,27.4,60,24.1,22.9
 2004/06/01,16:30,27.3,60,24.1,22.9
 2004/06/01,16:45,27.4,59.5,24.1,23
 2004/06/01,17:00,27.4,59,24.2,23
 2004/06/01,17:15,27.3,59,24.1,23
 2004/06/01,17:30,27.3,59,24.1,23.1
 2004/06/01,17:45,27.2,59,24.1,23.1
 2004/06/01,18:00,27.2,59,24.1,23.2
 2004/06/01,18:15,27.1,59,24.1,23.2
 2004/06/01,18:30,27,60,24,23.2
 2004/06/01,18:45,26.9,61,24,23.4
 2004/06/01,19:00,26.8,61,23.9,23.3
 2004/06/01,19:15,26.8,60.5,23.8,23.4
 2004/06/01,19:30,26.7,60,23.7,23.4
 2004/06/01,19:45,26.5,60,23.7,23.4
 2004/06/01,20:00,26.5,60,23.7,23.5
 2004/06/01,20:15,26.5,60,23.5,23.5
 2004/06/01,20:30,26.4,60,23.5,23.5
 2004/06/01,20:45,26.2,60,23.4,23.5
 2004/06/01,21:00,26.2,60,23.3,23.5
 2004/06/01,21:15,26.1,60,23.3,23.6
 2004/06/01,21:30,26,60,23.2,23.6
 2004/06/01,21:45,25.9,60,23.1,23.6
 2004/06/01,22:00,25.8,60,23.1,23.6
 2004/06/01,22:15,25.7,60,23,23.6
 2004/06/01,22:30,25.6,59,22.9,23.6
 2004/06/01,22:45,25.6,59,22.9,23.6
 2004/06/01,23:00,25.7,59,22.9,23.6
 2004/06/01,23:15,25.8,59,22.9,23.6
 2004/06/01,23:30,25.7,59,22.8,23.6
 2004/06/01,23:45,25.5,59,22.7,23.6
 2004/06/02, 0:00,25.4,59,22.6,23.5
 2004/06/02, 0:15,25.4,59,22.5,23.5
 2004/06/02, 0:30,25.2,60,22.5,23.5
 2004/06/02, 0:45,25.2,59,22.5,23.5
 2004/06/02, 1:00,25.2,59,22.3,23.4
 2004/06/02, 1:15,25.1,58.5,22.2,23.4
 2004/06/02, 1:30,25.1,59,22.1,23.4
 2004/06/02, 1:45,25,59,22.1,23.3
 2004/06/02, 2:00,24.8,59,22,23.3
 2004/06/02, 2:15,24.6,59,21.9,23.3
 2004/06/02, 2:30,24.6,59,21.8,23.2
 2004/06/02, 2:45,24.5,59,21.6,23.1
 2004/06/02, 3:00,24.3,59,21.6,23.1
 2004/06/02, 3:15,24.2,59,21.5,23
 2004/06/02, 3:30,24.1,59,21.4,23
 2004/06/02, 3:45,24,58.5,21.4,22.5
 2004/06/02, 4:00,23.9,58,21.3,22.4
 2004/06/02, 4:15,23.9,58,21.2,22.4
 2004/06/02, 4:30,23.7,58,21.2,22.3
 2004/06/02, 4:45,23.6,58,21.1,22.2
 2004/06/02, 5:00,23.5,58,21,22.2
 2004/06/02, 5:15,23.5,59.5,21,22.1
 2004/06/02, 5:30,23.4,60,20.9,22.6
 2004/06/02, 5:45,23.4,60,20.9,22.5
 2004/06/02, 6:00,23.4,60,20.8,22.4
 2004/06/02, 6:15,23.5,60,20.8,22.4
 2004/06/02, 6:30,23.6,62,20.8,22.4
 2004/06/02, 6:45,23.7,63,20.8,22.3
 2004/06/02, 7:00,24,61,20.9,22.3
 2004/06/02, 7:15,23.7,61.5,20.9,22.2
 2004/06/02, 7:30,23.8,61,20.8,22.2
 2004/06/02, 7:45,23.9,61,20.9,22.1
 2004/06/02, 8:00,23.8,61,21,22.1
 2004/06/02, 8:15,23.8,61,21,22
 2004/06/02, 8:30,23.9,61,21,22
 2004/06/02, 8:45,23.9,61,21,22
 2004/06/02, 9:00,24,61,21.1,22
 2004/06/02, 9:15,24,60,21.1,22
 2004/06/02, 9:30,24.1,60,21.2,22
 2004/06/02, 9:45,24.1,60,21.3,22
 2004/06/02,10:00,24.2,59,21.4,22
 2004/06/02,10:15,24.4,59,21.5,22
 2004/06/02,10:30,24.4,59,21.6,21.9
 2004/06/02,10:45,24.5,59,21.6,21.9
 2004/06/02,11:00,24.6,58,21.7,22
 2004/06/02,11:15,24.8,58,22,21.9
 2004/06/02,11:30,24.9,58,22,22
 2004/06/02,11:45,25,57.5,22.1,22
 2004/06/02,12:00,25.2,57,22.3,22
 2004/06/02,12:15,25.2,57,22.4,22
 2004/06/02,12:30,25.4,57,22.5,22
 2004/06/02,12:45,25.5,57,22.5,22
 2004/06/02,13:00,25.5,57,22.7,22
 2004/06/02,13:15,25.8,57,22.8,22
 2004/06/02,13:30,25.8,57,22.8,22.1
 2004/06/02,13:45,25.9,57,22.9,22.1
 2004/06/02,14:00,26,57,23,22.2
 2004/06/02,14:15,26,57,23,22.1
 2004/06/02,14:30,26.2,57,23.1,22.2
 2004/06/02,14:45,26.2,57,23.2,22.2
 2004/06/02,15:00,26.3,57,23.3,22.3
 2004/06/02,15:15,26.4,57,23.3,22.3
 2004/06/02,15:30,26.4,57,23.4,22.4
 2004/06/02,15:45,26.5,57,23.4,22.4
 2004/06/02,16:00,26.5,57,23.4,22.4
 2004/06/02,16:15,26.5,56.5,23.6,22.5
 2004/06/02,16:30,26.6,58,23.5,22.5
 2004/06/02,16:45,26.6,57.5,23.5,22.5
 2004/06/02,17:00,26.7,57,23.6,22.6
 2004/06/02,17:15,26.8,57.5,23.6,22.6
 2004/06/02,17:30,26.7,59,23.6,22.7
 2004/06/02,17:45,26.8,58,23.6,22.8
 2004/06/02,18:00,26.7,58,23.6,22.8
 2004/06/02,18:15,26.6,58,23.6,22.8
 2004/06/02,18:30,26.6,58,23.6,22.9
 2004/06/02,18:45,26.5,57,23.5,22.9
 2004/06/02,19:00,26.5,57,23.5,22.9
 2004/06/02,19:15,26.5,54.5,23.5,23
 2004/06/02,19:30,26.4,54,23.5,23
 2004/06/02,19:45,26.4,53,23.5,22.9
 2004/06/02,20:00,26.4,54,23.5,22.8
 2004/06/02,20:15,26.2,55,23.4,22.8
 2004/06/02,20:30,26.2,55,23.4,22.8
 2004/06/02,20:45,26.1,55,23.4,22.9
 2004/06/02,21:00,26.1,55,23.3,22.9
 2004/06/02,21:15,26,56,23.3,22.7
 2004/06/02,21:30,26,56,23.3,22.4
 2004/06/02,21:45,25.9,56,23.2,22.5
 2004/06/02,22:00,25.8,57,23.2,22.5
 2004/06/02,22:15,25.9,56.5,23.2,22.5
 2004/06/02,22:30,25.8,57,23.3,22.1
 2004/06/02,22:45,26,56,23.2,22.1
 2004/06/02,23:00,26.1,57,23.3,22.2
 2004/06/02,23:15,26.2,55.5,23.2,22.2
 2004/06/02,23:30,26.1,55,23.2,22.2
 2004/06/02,23:45,26,53.5,23.2,22.2
 2004/06/03, 0:00,26.1,53,23.2,22.3
 2004/06/03, 0:15,26.1,54,23.1,22.3
 2004/06/03, 0:30,26.1,54,23.1,22.3
 2004/06/03, 0:45,26.1,54,23,22.4
 2004/06/03, 1:00,26.1,54,22.9,22.4
 2004/06/03, 1:15,26,54,22.9,22.4
 2004/06/03, 1:30,25.9,54,22.8,22.4
 2004/06/03, 1:45,25.9,54,22.8,22.4
 2004/06/03, 2:00,25.8,54,22.7,22.4
 2004/06/03, 2:15,25.5,52.5,22.8,22.4
 2004/06/03, 2:30,25.5,52,22.7,22.4
 2004/06/03, 2:45,25.2,50,22.6,22.5
 2004/06/03, 3:00,25.2,52,22.7,22.5
 2004/06/03, 3:15,25.1,51.5,22.6,22.5
 2004/06/03, 3:30,25.2,52,22.6,22.5
 2004/06/03, 3:45,25,52.5,22.5,22.5
 2004/06/03, 4:00,25.1,52,22.5,22.5
 2004/06/03, 4:15,25,53,22.5,22.5
 2004/06/03, 4:30,25,53,22.5,22.5
 2004/06/03, 4:45,24.9,53,22.4,22.5
 2004/06/03, 5:00,24.8,53,22.3,22.5
 2004/06/03, 5:15,24.8,53,22.3,22.5
 2004/06/03, 5:30,24.7,53,22.3,22.5
 2004/06/03, 5:45,24.6,53,22.2,22.5
 2004/06/03, 6:00,24.6,52,22.2,22.5
 2004/06/03, 6:15,24.6,53.5,22.3,22.5
 2004/06/03, 6:30,24.5,52,22.1,22.9
 2004/06/03, 6:45,24.5,52,22.4,22.9
 2004/06/03, 7:00,24.6,53,22.3,22.9
 2004/06/03, 7:15,24.6,53,22.4,22.2
 2004/06/03, 7:30,24.7,53,22.3,22.2
 2004/06/03, 7:45,24.7,57.5,22.4,22.1
 2004/06/03, 8:00,24.4,66,22.4,22.2
 2004/06/03, 8:15,24.4,67,22.4,22.2
 2004/06/03, 8:30,24.3,70,22.4,22.2
 2004/06/03, 8:45,24.3,70,22.4,22.2
 2004/06/03, 9:00,24.3,71,22.5,22.2
 2004/06/03, 9:15,24.4,69.5,22.5,22.2
 2004/06/03, 9:30,24.4,71,22.5,22.3
 2004/06/03, 9:45,24.4,70,22.6,22.3
 2004/06/03,10:00,24.5,69,22.7,22.3
 2004/06/03,10:15,24.5,69,22.7,22.3
 2004/06/03,10:30,24.6,70,22.8,22.4
 2004/06/03,10:45,24.6,67.5,22.9,22.4
 2004/06/03,11:00,24.8,66,22.9,22.3
 2004/06/03,11:15,24.9,64.5,23,22.4
 2004/06/03,11:30,25,64,23.1,22.4
 2004/06/03,11:45,25,63,23.1,22.4
 2004/06/03,12:00,25.2,62,23.3,22.4
 2004/06/03,12:15,25.2,62,23.3,22.5
 2004/06/03,12:30,25.3,60,23.4,22.5
 2004/06/03,12:45,25.5,61.5,23.5,22.5
 2004/06/03,13:00,25.5,61,23.6,22.6
 2004/06/03,13:15,25.6,61,23.6,22.6
 2004/06/03,13:30,25.7,60,23.7,22.5
 2004/06/03,13:45,25.8,59,23.7,22.6
 2004/06/03,14:00,25.9,60,23.8,22.6
 2004/06/03,14:15,26,58.5,23.9,22.7
 2004/06/03,14:30,26,58,23.9,22.7
 2004/06/03,14:45,26.1,58,24,22.8
 2004/06/03,15:00,26.2,58,24,22.8
 2004/06/03,15:15,26.2,57.5,24,22.8
 2004/06/03,15:30,26.3,57,24.1,22.8
 2004/06/03,15:45,26.4,57,24.1,22.9
 2004/06/03,16:00,26.5,57,24.1,22.9
 2004/06/03,16:15,26.5,56.5,24.1,23
 2004/06/03,16:30,26.5,56,24.1,23
 2004/06/03,16:45,26.5,56,24.2,23
 2004/06/03,17:00,26.5,56,24.1,23
 2004/06/03,17:15,26.5,56.5,24.1,23.1
 2004/06/03,17:30,26.5,56,24.2,23.1
 2004/06/03,17:45,26.5,56,24.1,23.2
 2004/06/03,18:00,26.5,56,24.2,23.2
 2004/06/03,18:15,26.5,55.5,24.1,23.2
 2004/06/03,18:30,26.4,56,24.2,23.3
 2004/06/03,18:45,26.4,55.5,24.1,23.4
 2004/06/03,19:00,26.3,55,24.1,23.4
 2004/06/03,19:15,26.3,55,24,23.4
 2004/06/03,19:30,26.2,55,24,23.4
 2004/06/03,19:45,26.1,56,24,23.5
 2004/06/03,20:00,26,56,23.8,23.5
 2004/06/03,20:15,26,57,23.9,23.6
 2004/06/03,20:30,26,57,23.8,23.6
 2004/06/03,20:45,25.9,57,23.7,23.6
 2004/06/03,21:00,25.8,57,23.7,23.6
 2004/06/03,21:15,25.8,57,23.7,23.6
 2004/06/03,21:30,25.8,57,23.6,23.7
 2004/06/03,21:45,25.8,57,23.5,23.7
 2004/06/03,22:00,25.6,55,23.6,23.7
 2004/06/03,22:15,25.5,54,23.6,23.7
 2004/06/03,22:30,25.5,54,23.5,23.7
 2004/06/03,22:45,25.7,54,23.5,23.7
 2004/06/03,23:00,25.7,53,23.5,23.8
 2004/06/03,23:15,25.5,53.5,23.4,23.8
 2004/06/03,23:30,25.7,53,23.3,23.8
 2004/06/03,23:45,25.5,52.5,23.2,23.8
 2004/06/04, 0:00,25.4,53,23,23.8
 2004/06/04, 0:15,25.5,52.5,22.7,23.8
 2004/06/04, 0:30,25.3,53,22.9,22.8
 2004/06/04, 0:45,25.2,53,22.9,22.8
 2004/06/04, 1:00,25.1,54,22.8,22.7
 2004/06/04, 1:15,25,54,22.8,22.8
 2004/06/04, 1:30,25,54,22.7,22.8
 2004/06/04, 1:45,24.9,54,22.6,22.8
 2004/06/04, 2:00,24.9,54,22.6,22.8
 2004/06/04, 2:15,24.8,54,22.5,22.8
 2004/06/04, 2:30,24.7,54,22.5,22.8
 2004/06/04, 2:45,24.6,55,22.4,22.8
 2004/06/04, 3:00,24.6,55,22.3,22.8
 2004/06/04, 3:15,24.5,55,22.2,22.8
 2004/06/04, 3:30,24.4,55,22.2,22.8
 2004/06/04, 3:45,24.3,55,22.1,22.8
 2004/06/04, 4:00,24.3,55,22,22.7
 2004/06/04, 4:15,24.2,55,22,22.7
 2004/06/04, 4:30,24.2,54,21.9,22.7
 2004/06/04, 4:45,24,55,21.9,22.7
 2004/06/04, 5:00,24,55,21.8,22.7
 2004/06/04, 5:15,23.9,55,21.7,22.6
 2004/06/04, 5:30,23.8,55,21.7,22.6
 2004/06/04, 5:45,23.8,55,21.6,22.6
 2004/06/04, 6:00,23.8,55,21.6,22.6
 2004/06/04, 6:15,23.8,55,21.6,22.5
 2004/06/04, 6:30,23.7,55,21.6,22.5
 2004/06/04, 6:45,24,57.5,21.6,22.4
 2004/06/04, 7:00,24.3,59,21.7,22.6
 2004/06/04, 7:15,24.2,57.5,21.7,22.5
 2004/06/04, 7:30,24.1,53,21.7,22.5
 2004/06/04, 7:45,24.3,54,21.7,21.9
 2004/06/04, 8:00,24.4,56,21.7,21.9
 2004/06/04, 8:15,24.5,55,21.8,21.9
 2004/06/04, 8:30,24.6,56,21.9,21.9
 2004/06/04, 8:45,24.6,56,22,22
 2004/06/04, 9:00,24.8,56,22.1,21.9
 2004/06/04, 9:15,25,56,22.1,22
 2004/06/04, 9:30,24.9,56,22.2,22
 2004/06/04, 9:45,25,56,22.3,22
 2004/06/04,10:00,25,56,22.4,22
 2004/06/04,10:15,25,56,22.5,22
 2004/06/04,10:30,25.2,56,22.6,22.1
 2004/06/04,10:45,25.3,55,22.8,22.1
 2004/06/04,11:00,25.4,55,22.9,22.1
 2004/06/04,11:15,25.5,55,23,22.1
 2004/06/04,11:30,25.7,55,23.1,22.1
 2004/06/04,11:45,25.7,54.5,23.2,22.2
 2004/06/04,12:00,25.8,54,23.3,22.2
 2004/06/04,12:15,25.9,54,23.5,22.2
 2004/06/04,12:30,26,54,23.6,22.3
 2004/06/04,12:45,26.1,54,23.7,22.4
 2004/06/04,13:00,26.2,54,23.8,22.4
 2004/06/04,13:15,26.2,54,23.9,22.4
 2004/06/04,13:30,26.5,54,23.9,22.4
 2004/06/04,13:45,26.5,54,24,22.5
 2004/06/04,14:00,26.6,54,24,22.6
 2004/06/04,14:15,26.8,54,24.1,22.6
 2004/06/04,14:30,26.8,54,24.2,22.6
 2004/06/04,14:45,26.9,53,24.2,22.7
 2004/06/04,15:00,26.9,54,24.4,22.8
 2004/06/04,15:15,27.1,53,24.4,22.8
 2004/06/04,15:30,27.2,53,24.5,22.8
 2004/06/04,15:45,27.2,53,24.5,22.9
 2004/06/04,16:00,27.3,53,24.6,22.9
 2004/06/04,16:15,27.3,53,24.7,23
 2004/06/04,16:30,27.4,53,24.7,23
 2004/06/04,16:45,27.4,53,24.7,23.1
 2004/06/04,17:00,27.4,53,24.7,23.2
 2004/06/04,17:15,27.4,52,24.7,23.2
 2004/06/04,17:30,27.4,53,24.7,23.2
 2004/06/04,17:45,27.3,52.5,24.7,23.3
 2004/06/04,18:00,27.3,52,24.7,23.3
 2004/06/04,18:15,27.3,52,24.7,23.4
 2004/06/04,18:30,27.3,52,24.6,23.4
 2004/06/04,18:45,27.2,52,24.6,23.5
 2004/06/04,19:00,27.2,52,24.6,23.5
 2004/06/04,19:15,27.1,52,24.6,23.5
 2004/06/04,19:30,27.1,53,24.5,23.6
 2004/06/04,19:45,27,53,24.5,23.6
 2004/06/04,20:00,26.9,53,24.4,23.7
 2004/06/04,20:15,26.9,53.5,24.5,23.8
 2004/06/04,20:30,26.8,54,24.4,23.8
 2004/06/04,20:45,26.8,54,24.4,23.8
 2004/06/04,21:00,26.7,54,24.3,23.9
 2004/06/04,21:15,26.3,47,24.2,23.9
 2004/06/04,21:30,25.7,38,24.1,24
 2004/06/04,21:45,25.5,38.5,24,24
 2004/06/04,22:00,25.3,39,24,24
 2004/06/04,22:15,25,38,23.9,24
 2004/06/04,22:30,24.7,39,23.7,24.1
 2004/06/04,22:45,24.5,39.5,23.7,24.1
 2004/06/04,23:00,24.5,40,23.6,24.1
 2004/06/04,23:15,24.5,39.5,23.5,24.1
 2004/06/04,23:30,24.2,40,23.5,24.1
 2004/06/04,23:45,24.6,43,23.4,24.1
 2004/06/05, 0:00,24.8,44,23.3,-9.9
 2004/06/05, 0:15,25.2,44,23.3,-9.9
 2004/06/05, 0:30,24.9,45,23.3,-9.9
 2004/06/05, 0:45,24.8,45.5,23.3,-9.9
 2004/06/05, 1:00,24.7,45,23.2,-9.9
 2004/06/05, 1:15,24.6,46,23.1,-9.9
 2004/06/05, 1:30,24.6,46,23.1,-9.9
 2004/06/05, 1:45,24.5,45.5,23,-9.9
 2004/06/05, 2:00,24.4,45,22.9,-9.9
 2004/06/05, 2:15,24.5,46,22.9,-9.9
 2004/06/05, 2:30,24.3,46,22.8,-9.9
 2004/06/05, 2:45,24.2,47,22.8,-9.9
 2004/06/05, 3:00,24.2,47,22.7,-9.9
 2004/06/05, 3:15,24.1,47.5,22.6,-9.9
 2004/06/05, 3:30,24.1,48,22.6,-9.9
 2004/06/05, 3:45,24,48.5,22.5,-9.9
 2004/06/05, 4:00,23.9,49,22.5,-9.9
 2004/06/05, 4:15,23.8,49,22.5,-9.9
 2004/06/05, 4:30,23.7,49,22.4,-9.9
 2004/06/05, 4:45,23.6,50,22.3,-9.9
 2004/06/05, 5:00,23.6,50,22.3,-9.9
 2004/06/05, 5:15,23.5,51,22.3,-9.9
 2004/06/05, 5:30,23.6,51,22.2,-9.9
 2004/06/05, 5:45,23.5,51,22.2,-9.9
 2004/06/05, 6:00,23.6,51,22.2,-9.9
 2004/06/05, 6:15,23.6,51.5,22.1,-9.9
 2004/06/05, 6:30,23.6,52,22.2,-9.9
 2004/06/05, 6:45,23.6,52,22.3,-9.9
 2004/06/05, 7:00,23.6,52,22.3,-9.9
 2004/06/05, 7:15,23.9,52.5,22.3,-9.9
 2004/06/05, 7:30,24.1,53,22.2,-9.9
 2004/06/05, 7:45,24.3,53,22.3,-9.9
 2004/06/05, 8:00,24.6,53,22.4,-9.9
 2004/06/05, 8:15,24.6,53,22.5,-9.9
 2004/06/05, 8:30,24.9,52,22.6,-9.9
 2004/06/05, 8:45,25.5,49.5,22.7,-9.9
 2004/06/05, 9:00,25.4,51,22.8,-9.9
 2004/06/05, 9:15,25.4,50,22.9,-9.9
 2004/06/05, 9:30,25.4,51,23,-9.9
 2004/06/05, 9:45,25.4,51.5,23.1,-9.9
 2004/06/05,10:00,25.5,51,23.2,-9.9
 2004/06/05,10:15,25.4,53,23.4,-9.9
 2004/06/05,10:30,25,57,23.5,-9.9
 2004/06/05,10:45,23.8,50.5,23.6,-9.9
 2004/06/05,11:00,22.8,55,23.6,-9.9
 2004/06/05,11:15,24.7,55.5,23.8,-9.9
 2004/06/05,11:30,25,57,23.9,-9.9
 2004/06/05,11:45,25.2,57,24,-9.9
 2004/06/05,12:00,25.4,58,24.1,-9.9
 2004/06/05,12:15,25.4,57.5,24.2,-9.9
 2004/06/05,12:30,25.6,59,24.3,-9.9
 2004/06/05,12:45,25.8,57,24.4,-9.9
 2004/06/05,13:00,25.8,57,24.4,-9.9
 2004/06/05,13:15,26,57,24.5,-9.9
 2004/06/05,13:30,26.3,56,24.6,-9.9
 2004/06/05,13:45,26.4,56,24.8,-9.9
 2004/06/05,14:00,26.5,56,24.8,-9.9
 2004/06/05,14:15,26.5,56.5,25,-9.9
 2004/06/05,14:30,26.8,56,25,-9.9
 2004/06/05,14:45,26.9,56,25.1,-9.9
 2004/06/05,15:00,27,56,25.2,-9.9
 2004/06/05,15:15,27.1,56,25.2,-9.9
 2004/06/05,15:30,27.2,56,25.3,-9.9
 2004/06/05,15:45,27.3,55.5,25.4,-9.9
 2004/06/05,16:00,27.4,55,25.4,-9.9
 2004/06/05,16:15,27.5,55,25.5,-9.9
 2004/06/05,16:30,27.5,55,25.5,-9.9
 2004/06/05,16:45,27.5,55,25.5,-9.9
 2004/06/05,17:00,27.6,55,25.6,-9.9
 2004/06/05,17:15,27.6,55,25.6,-9.9
 2004/06/05,17:30,27.7,55,25.6,-9.9
 2004/06/05,17:45,27.6,55,25.6,-9.9
 2004/06/05,18:00,27.7,55,25.7,-9.9
 2004/06/05,18:15,27.7,55.5,25.6,-9.9
 2004/06/05,18:30,27.8,56,25.6,-9.9
 2004/06/05,18:45,27.5,52,25.7,-9.9
 2004/06/05,19:00,27.4,53,25.7,-9.9
 2004/06/05,19:15,27.4,53.5,25.6,-9.9
 2004/06/05,19:30,27.2,54,25.6,-9.9
 2004/06/05,19:45,27.4,55,25.8,-9.9
 2004/06/05,20:00,28,54,25.8,-9.9
 2004/06/05,20:15,28.1,52.5,25.8,-9.9
 2004/06/05,20:30,28.3,53,25.7,-9.9
 2004/06/05,20:45,28.2,52,25.9,-9.9
 2004/06/05,21:00,28,51,26.1,-9.9
 2004/06/05,21:15,28,52.5,26,-9.9
 2004/06/05,21:30,28,50,25.9,-9.9
 2004/06/05,21:45,27.9,51,26,-9.9
 2004/06/05,22:00,28.1,51,25.9,-9.9
 2004/06/05,22:15,28.1,51,25.9,-9.9
 2004/06/05,22:30,28.1,51,25.9,-9.9
 2004/06/05,22:45,28,50,25.9,-9.9
 2004/06/05,23:00,28.1,50,25.9,-9.9
 2004/06/05,23:15,28,50,26,-9.9
 2004/06/05,23:30,27.8,51,26,-9.9
 2004/06/05,23:45,27.9,51,26,-9.9
 2004/06/06, 0:00,27.8,51,25.9,-9.9
 2004/06/06, 0:15,27.9,51.5,25.9,-9.9
 2004/06/06, 0:30,27.9,52,25.9,-9.9
 2004/06/06, 0:45,27.9,52,25.9,-9.9
 2004/06/06, 1:00,27.8,52,25.9,-9.9
 2004/06/06, 1:15,27.7,50.5,25.9,-9.9
 2004/06/06, 1:30,27.6,52,25.9,-9.9
 2004/06/06, 1:45,27.9,52,25.9,-9.9
 2004/06/06, 2:00,27.9,53,25.8,-9.9
 2004/06/06, 2:15,27.8,53.5,25.8,-9.9
 2004/06/06, 2:30,27.8,54,25.8,-9.9
 2004/06/06, 2:45,27.8,54.5,25.8,-9.9
 2004/06/06, 3:00,27.8,55,25.8,-9.9
 2004/06/06, 3:15,27.7,55,25.8,-9.9
 2004/06/06, 3:30,27.7,56,25.7,-9.9
 2004/06/06, 3:45,27.6,56,25.7,-9.9
 2004/06/06, 4:00,27.6,56,25.7,-9.9
 2004/06/06, 4:15,27.5,56,25.6,-9.9
 2004/06/06, 4:30,27.5,56,25.6,-9.9
 2004/06/06, 4:45,27.5,56,25.6,-9.9
 2004/06/06, 5:00,27.4,57,25.6,-9.9
 2004/06/06, 5:15,27.3,57,25.6,-9.9
 2004/06/06, 5:30,27.3,57,25.6,-9.9
 2004/06/06, 5:45,27.2,57,25.5,-9.9
 2004/06/06, 6:00,27.1,57,25.4,-9.9
 2004/06/06, 6:15,27,57.5,25.5,-9.9
 2004/06/06, 6:30,27.1,58,25.4,-9.9
 2004/06/06, 6:45,27.1,57.5,25.4,-9.9
 2004/06/06, 7:00,27.1,58,25.4,-9.9
 2004/06/06, 7:15,27.1,58,25.4,-9.9
 2004/06/06, 7:30,27.1,58,25.4,-9.9
 2004/06/06, 7:45,27.1,59.5,25.5,-9.9
 2004/06/06, 8:00,27.2,60,25.3,-9.9
 2004/06/06, 8:15,27.4,61,25.2,-9.9
 2004/06/06, 8:30,27.5,63,25.2,-9.9
 2004/06/06, 8:45,27.2,63.5,25.1,-9.9
 2004/06/06, 9:00,27.3,65,24.9,-9.9
 2004/06/06, 9:15,27.4,65,25.2,-9.9
 2004/06/06, 9:30,27.4,64,25.4,-9.9
 2004/06/06, 9:45,27.4,64,25.4,-9.9
 2004/06/06,10:00,27.5,64,25.7,-9.9
 2004/06/06,10:15,27.5,67,25.8,-9.9
 2004/06/06,10:30,27.1,70,25.5,-9.9
 2004/06/06,10:45,27,71,25.5,-9.9
 2004/06/06,11:00,27.1,70,25.6,-9.9
 2004/06/06,11:15,27.1,70.5,25.6,-9.9
 2004/06/06,11:30,27.2,70,25.7,-9.9
 2004/06/06,11:45,27.2,69,25.8,-9.9
 2004/06/06,12:00,27.2,70,25.8,-9.9
 2004/06/06,12:15,27.3,69.5,25.8,-9.9
 2004/06/06,12:30,27.3,69,25.9,-9.9
 2004/06/06,12:45,27.4,69,25.9,-9.9
 2004/06/06,13:00,27.5,68,25.9,-9.9
 2004/06/06,13:15,27.6,67,26,-9.9
 2004/06/06,13:30,27.6,67,26,-9.9
 2004/06/06,13:45,27.8,67,26.1,-9.9
 2004/06/06,14:00,27.8,66,26.2,-9.9
 2004/06/06,14:15,27.9,66,26.3,-9.9
 2004/06/06,14:30,27.9,65,26.4,-9.9
 2004/06/06,14:45,28,65.5,26.4,-9.9
 2004/06/06,15:00,28,65,26.4,-9.9
 2004/06/06,15:15,28.1,64,26.5,-9.9
 2004/06/06,15:30,28.1,64,26.5,-9.9
 2004/06/06,15:45,28,64,26.5,-9.9
 2004/06/06,16:00,28.1,65,26.4,-9.9
 2004/06/06,16:15,28.1,65,26.4,-9.9
 2004/06/06,16:30,28.5,67,26.3,-9.9
 2004/06/06,16:45,28.6,65.5,26.4,-9.9
 2004/06/06,17:00,28.7,66,26.4,-9.9
 2004/06/06,17:15,28.4,66,26.4,-9.9
 2004/06/06,17:30,28.3,66,26.3,-9.9
 2004/06/06,17:45,28.2,66,26.3,-9.9
 2004/06/06,18:00,28.2,66,26.3,-9.9
 2004/06/06,18:15,27.9,65,26.2,-9.9
 2004/06/06,18:30,26.8,62,26.2,-9.9
 2004/06/06,18:45,25.3,61,26.1,-9.9
 2004/06/06,19:00,24.7,61,26.4,-9.9
 2004/06/06,19:15,26.7,61.5,26.5,-9.9
 2004/06/06,19:30,27,64,26.4,-9.9
 2004/06/06,19:45,27,65.5,26.4,-9.9
 2004/06/06,20:00,26.9,67,26.4,-9.9
 2004/06/06,20:15,27.3,62.5,26.4,-9.9
 2004/06/06,20:30,27.4,59,26.4,-9.9
 2004/06/06,20:45,27.5,57.5,26.5,-9.9
 2004/06/06,21:00,26.5,58,26.4,-9.9
 2004/06/06,21:15,25.2,53,26.4,-9.9
 2004/06/06,21:30,24.7,52,26.3,-9.9
 2004/06/06,21:45,26,65,26.3,-9.9
 2004/06/06,22:00,26.3,69,26.1,-9.9
 2004/06/06,22:15,26.6,68.5,26.4,-9.9
 2004/06/06,22:30,26.8,66,26.4,-9.9
 2004/06/06,22:45,26.5,63.5,26.2,-9.9
 2004/06/06,23:00,26.8,63,26.1,-9.9
 2004/06/06,23:15,26.5,61.5,26.1,-9.9
 2004/06/06,23:30,26.7,61,26.1,-9.9
 2004/06/06,23:45,26.9,59.5,26,-9.9
 2004/06/07, 0:00,27,59,26,-9.9
 2004/06/07, 0:15,26.7,57.5,25.9,-9.9
 2004/06/07, 0:30,26.9,59,25.9,-9.9
 2004/06/07, 0:45,26.9,59.5,25.9,-9.9
 2004/06/07, 1:00,27,60,25.8,-9.9
 2004/06/07, 1:15,27,61,25.8,-9.9
 2004/06/07, 1:30,27,61,25.7,-9.9
 2004/06/07, 1:45,26.8,62,25.6,-9.9
 2004/06/07, 2:00,26.7,62,25.6,-9.9
 2004/06/07, 2:15,26.7,62.5,25.6,-9.9
 2004/06/07, 2:30,26.7,63,25.5,-9.9
 2004/06/07, 2:45,26.7,62.5,25.5,-9.9
 2004/06/07, 3:00,26.7,62,25.4,-9.9
 2004/06/07, 3:15,26.7,63,25.4,-9.9
 2004/06/07, 3:30,26.7,63,25.3,-9.9
 2004/06/07, 3:45,26.7,63,25.3,-9.9
 2004/06/07, 4:00,26.7,63,25.3,-9.9
 2004/06/07, 4:15,26.6,64,25.2,-9.9
 2004/06/07, 4:30,26.6,64,25.2,-9.9
 2004/06/07, 4:45,26.5,64,25.1,-9.9
 2004/06/07, 5:00,26.5,64,25.1,-9.9
 2004/06/07, 5:15,26.5,64,25,-9.9
 2004/06/07, 5:30,26.5,64,25,-9.9
 2004/06/07, 5:45,26.5,64,25,-9.9
 2004/06/07, 6:00,26.5,64,25,-9.9
 2004/06/07, 6:15,26.5,64,25,-9.9
 2004/06/07, 6:30,26.6,64,25,-9.9
 2004/06/07, 6:45,26.6,65,25,-9.9
 2004/06/07, 7:00,26.8,71,25,-9.9
 2004/06/07, 7:15,26.7,71,25,-9.9
 2004/06/07, 7:30,26.7,73,25,-9.9
 2004/06/07, 7:45,26.8,74,25.1,-9.9
 2004/06/07, 8:00,26.8,75,25.2,-9.9
 2004/06/07, 8:15,26.9,75,25.2,-9.9
 2004/06/07, 8:30,27,74,25.3,-9.9
 2004/06/07, 8:45,27,74,25.3,-9.9
 2004/06/07, 9:00,27.1,72,25.3,-9.9
 2004/06/07, 9:15,27.2,72.5,25.5,-9.9
 2004/06/07, 9:30,27.3,72,25.5,-9.9
 2004/06/07, 9:45,27.4,71.5,25.6,-9.9
 2004/06/07,10:00,27.5,71,25.7,-9.9
 2004/06/07,10:15,27.6,70.5,25.8,-9.9
 2004/06/07,10:30,27.8,69,25.9,-9.9
 2004/06/07,10:45,28,68.5,26,-9.9
 2004/06/07,11:00,28,68,26.1,-9.9
 2004/06/07,11:15,28.2,67.5,26.2,-9.9
 2004/06/07,11:30,28.3,67,26.3,-9.9
 2004/06/07,11:45,28.4,67,26.4,-9.9
 2004/06/07,12:00,28.4,68,26.4,-9.9
 2004/06/07,12:15,28.4,68.5,26.4,-9.9
 2004/06/07,12:30,28.4,68,26.4,-9.9
 2004/06/07,12:45,28.5,67.5,26.4,-9.9
 2004/06/07,13:00,28.7,67,26.5,-9.9
 2004/06/07,13:15,28.8,67.5,26.5,-9.9
 2004/06/07,13:30,29,67,26.6,-9.9
 2004/06/07,13:45,29.1,66,26.8,-9.9
 2004/06/07,14:00,29.1,66,26.8,-9.9
 2004/06/07,14:15,29.2,65.5,26.9,-9.9
 2004/06/07,14:30,29.3,66,26.9,-9.9
 2004/06/07,14:45,29.3,65,27,-9.9
 2004/06/07,15:00,29.4,65,27,-9.9
 2004/06/07,15:15,29.5,65,27.1,-9.9
 2004/06/07,15:30,29.5,65,27.1,-9.9
 2004/06/07,15:45,29.5,65,27.1,-9.9
 2004/06/07,16:00,29.5,65,27.2,-9.9
 2004/06/07,16:15,29.5,64.5,27.2,-9.9
 2004/06/07,16:30,29.6,65,27.2,-9.9
 2004/06/07,16:45,29.6,64.5,27.2,-9.9
 2004/06/07,17:00,29.7,64,27.3,-9.9
 2004/06/07,17:15,29.7,64,27.2,-9.9
 2004/06/07,17:30,29.6,64,27.3,-9.9
 2004/06/07,17:45,29.6,64,27.3,-9.9
 2004/06/07,18:00,29.6,64,27.3,-9.9
 2004/06/07,18:15,29.6,66.5,27.3,-9.9
 2004/06/07,18:30,29.5,68,27.3,-9.9